SCP
0 0 0 0 0 0 0 0 0 0 0 0 0 0 0 0 0 0 0 0 0 0 -0 -0 -0 -0 -0 -0 -0 -0 -0 -0 -0 -0 -0 -0 -0 -0 -0 0 0 0 0
0 0 0 0 0 -0 0 0 0 0 0 0 0 0 0 0 0 0 0 0 0 0 0 -0 -0 -0 -0 -0 -0 -0 -0 -0 -0 -0 -0 -0 -0 -0 -0 0 0 0 0
0 0 0 0 0 0 0 0 0 0 0 0 0 0 0 0 0 0 0 0 0 0 0 0 -0 -0 -0 -0 -0 -0 -0 -0 -0 -0 -0 -0 -0 -0 -0 0 0 0 0
0 0 0 0 0 -0 0 0 0 0 0 0 0 0 0 0 0 0 0 0 0 0 0 0 0 -0 -0 -0 -0 -0 -0 -0 -0 -0 -0 -0 -0 -0 -0 0 0 0 0
0 0 0 0 0 0 0 0 0 0 0 0 0 0 0 0 0 0 0 0 0 0 0 0 0 0 -0 -0 -0 -0 -0 -0 -0 -0 -0 -0 -0 -0 -0 0 0 0 0
0 0 0 0 0 0 0 0 0 0 0 0 0 0 0 0 0 0 0 0 0 0 0 0 0 0 0 0 -0 -0 -0 -0 -0 -0 -0 -0 -0 -0 -0 0 0 0 0
0 0 0 0 0 0 0 0 0 0 0 0 0 0 0 0 0 0 0 0 0 0 0 0 0 0 0 0 0 -0 -0 -0 -0 -0 -0 -0 -0 -0 -0 0 0 0 0
0 0 0 0 0 0 0 0 0 0 0 0 0 0 0 0 0 0 0 0 0 0 0 0 0 0 0 0 0 0 0 -0 -0 -0 -0 -0 -0 -0 -0 0 0 0 0
0 0 0 0 0 0 0 0 0 0 0 0 0 0 0 0 0 0 0 0 0 0 0 0 0 0 0 0 0 0 -0 0 0 -0 -0 -0 -0 -0 -0 0 0 0 0
0 0 0 0 0 0 0 0 0 0 0 0 0 0 0 0 0 0 0 0 0 0 0 0 0 0 0 0 0 0 0 0 0 -0 -0 -0 -0 -0 -0 0 0 0 0
0 0 0 0 0 0 0 0 0 0 0 0 0 0 0 0 0 0 0 0 0 0 0 0 0 0 0 0 0 0 0 0 0 0 0 -0 -0 -0 -0 0 0 0 0
0 0 0 1 0 0 0 0 0 0 0 0 0 0 0 0 0 0 0 0 0 0 0 0 0 0 0 0 0 0 0 0 0 0 0 0 0 0 0 0 0 0 0
0 0 0 0 0 0 0 0 0 0 0 0 0 0 0 0 0 0 0 0 0 0 0 0 0 0 0 0 0 0 0 0 0 0 0 0 0 0 0 0 0 0 0
0 0 0 0 0 0 0 0 0 0 0 0 0 0 0 0 0 0 0 0 0 0 0 0 0 0 0 0 0 0 0 0 0 0 0 0 0 0 0 0 0 0 0
0 0 0 0 0 0 0 0 0 0 0 0 0 0 0 0 0 0 0 0 0 0 0 0 0 0 0 0 0 0 0 0 0 0 0 0 0 0 0 0 0 0 0
0 0 0 0 0 0 0 0 0 0 0 0 0 0 0 0 0 0 0 0 0 0 0 0 0 0 0 0 0 0 0 0 0 0 0 0 0 0 0 0 0 0 0
0 0 0 0 0 0 0 0 0 0 0 0 0 0 0 0 0 0 0 0 0 0 0 0 0 0 0 0 0 0 0 0 0 0 0 0 0 0 0 0 0 0 0
0 0 0 0 0 0 0 0 0 0 0 0 0 0 0 0 0 0 0 0 0 0 0 0 0 0 0 0 0 0 0 0 0 0 0 0 0 0 0 0 0 0 0
0 0 0 0 0 0 0 0 0 0 0 0 0 0 0 0 0 0 0 0 0 0 0 0 0 0 0 0 0 0 0 0 0 0 0 0 0 0 0 0 0 0 0
0 0 0 0 0 0 0 0 0 0 0 0 0 0 0 0 0 0 0 0 0 0 0 0 0 0 0 0 0 0 0 0 0 0 0 0 0 0 0 0 0 0 0
0 0 0 0 0 0 0 0 0 0 0 0 0 0 0 0 0 0 0 0 0 0 0 0 0 0 0 0 0 0 0 0 0 0 0 0 0 0 0 0 0 0 0
0 0 0 0 0 0 0 0 0 0 0 0 0 0 0 0 0 0 0 0 0 0 0 0 0 0 -0 0 0 0 0 0 0 0 0 0 0 0 0 0 0 0 0
0 0 0 0 0 0 0 0 0 0 0 0 0 0 0 0 0 0 0 0 0 0 0 0 0 0 0 0 0 0 0 0 0 0 0 0 0 0 0 0 0 0 0
0 0 0 0 0 0 0 0 0 0 0 0 0 0 0 0 0 0 0 0 0 0 0 0 0 0 0 0 0 0 0 0 0 0 0 0 0 0 0 0 0 0 0
0 0 0 0 0 0 0 0 0 0 0 0 0 0 0 0 0 0 0 -0 0 0 0 0 0 0 0 0 0 0 0 0 0 0 0 0 0 0 0 0 0 0 0
0 0 0 0 0 0 0 0 0 0 0 0 0 0 0 0 0 0 0 -0 0 0 0 0 0 0 0 0 0 0 0 0 0 0 0 0 0 1 0 0 0 0 0
Wind_Speed_500mb
42 44 44 54 68 66 57 49 48 44 48 39 28 31 29 24 23 14 18 29 30 32 31 31 32 33 33 35 30 34 30 30 30 29 29 29 27 26 26 26 25 24 22
37 43 42 62 75 67 59 51 51 49 49 47 42 38 32 27 23 18 21 28 32 35 31 32 31 32 30 31 30 30 30 30 29 28 27 26 25 25 25 24 23 21 20
38 37 39 53 71 58 63 59 60 62 55 47 41 36 33 28 24 23 23 25 31 33 33 28 30 33 32 30 30 30 28 28 27 26 25 25 23 23 23 22 21 19 17
43 33 36 46 56 77 63 63 64 65 57 46 40 37 32 28 26 24 23 24 28 29 35 34 33 32 32 32 32 31 30 28 25 26 26 25 23 22 21 20 19 17 15
37 35 35 34 55 66 67 61 63 65 62 49 40 35 30 28 28 23 26 27 28 28 28 37 33 36 34 31 31 30 29 28 27 26 26 25 23 23 21 19 18 16 14
32 34 35 39 51 67 75 85 58 59 60 57 45 38 34 31 29 28 27 27 27 30 29 30 35 34 33 32 32 32 29 28 28 26 25 25 24 24 22 20 18 17 15
32 36 40 34 49 70 76 49 71 70 63 58 49 39 43 36 34 29 27 29 31 32 31 32 31 30 34 34 34 34 32 30 29 27 26 26 25 23 23 21 20 19 18
31 37 35 45 49 59 65 72 72 82 76 67 68 59 47 41 47 39 30 30 35 33 35 33 33 33 33 37 37 36 35 33 32 29 28 27 26 24 24 23 22 21 19
38 42 36 40 49 66 69 78 80 85 84 78 79 57 37 28 45 47 43 38 39 34 34 36 37 38 36 30 34 37 37 37 35 33 31 29 28 27 25 24 24 22 21
40 40 48 41 44 59 89 81 83 80 82 88 90 85 64 45 41 27 50 46 44 42 40 38 41 41 39 37 38 40 42 41 39 37 34 33 32 29 27 26 25 24 23
35 37 44 43 46 54 71 80 61 74 86 89 103 99 88 65 54 39 33 53 51 50 48 45 40 40 43 42 43 48 45 45 43 41 38 36 35 32 29 28 27 25 25
33 35 42 44 51 49 58 67 51 75 81 88 107 101 99 82 79 72 41 52 60 50 52 54 52 45 42 45 46 47 47 47 48 46 43 40 38 35 32 30 29 27 26
22 34 35 40 43 50 38 37 68 51 67 84 82 100 101 107 78 79 57 46 44 35 44 50 50 57 46 47 47 57 52 47 52 51 48 45 42 38 35 32 30 28 27
33 30 25 38 44 45 44 59 49 57 66 81 84 85 89 100 93 84 66 36 35 41 37 40 57 60 57 51 50 52 51 48 53 54 51 49 47 42 39 36 32 29 28
36 37 34 30 50 54 55 48 48 67 70 59 63 76 88 102 99 89 85 65 47 32 43 38 29 32 43 47 53 58 53 49 54 54 53 52 51 47 44 40 37 34 32
35 32 36 34 41 48 50 46 49 55 59 59 56 67 75 78 91 106 94 76 61 48 47 22 40 32 33 45 48 59 54 54 51 54 55 54 53 50 47 45 42 38 36
36 33 35 41 34 37 60 42 60 51 69 62 71 71 73 64 80 90 82 90 71 63 47 49 31 27 30 42 42 51 51 52 56 56 56 55 54 52 49 46 44 40 39
32 31 32 40 33 28 36 57 45 51 60 87 80 79 77 74 71 74 74 76 72 75 61 59 55 37 30 31 42 49 49 50 54 53 57 57 57 55 53 50 47 47 43
33 27 28 31 33 32 33 51 61 48 35 43 69 68 69 88 85 81 87 93 88 78 72 74 70 62 52 42 36 43 43 47 50 53 54 58 57 57 55 54 51 52 49
35 27 23 26 29 31 36 42 43 53 49 47 50 72 70 79 85 85 95 98 84 81 76 80 85 74 68 57 53 46 51 50 52 45 57 60 60 59 59 57 57 54 53
38 28 21 19 20 36 40 38 50 62 52 52 44 42 63 55 63 76 90 86 99 100 87 84 83 79 81 81 83 76 58 56 57 53 56 56 62 59 63 63 63 59 55
40 28 21 12 16 26 35 53 50 43 55 51 51 61 63 67 73 69 70 106 107 106 102 105 89 94 98 100 86 101 82 63 54 64 60 61 61 63 68 65 60 56 55
42 35 26 19 17 23 30 42 52 59 58 65 68 61 51 49 42 50 49 91 101 114 107 110 114 108 124 112 90 94 90 77 72 65 58 64 61 68 70 65 62 56 55
39 41 37 33 27 29 32 32 35 46 50 58 53 62 60 48 37 32 38 64 89 103 97 93 97 100 105 100 90 96 111 88 73 64 62 66 59 61 63 62 58 54 55
42 39 41 42 41 42 44 36 29 26 38 48 56 49 55 61 47 42 33 42 67 71 76 94 86 83 96 91 81 92 98 98 86 79 73 68 65 58 64 59 62 59 57
40 37 36 38 45 53 51 43 28 26 25 30 38 57 57 60 67 53 50 41 46 50 61 61 78 93 97 92 91 84 90 101 87 74 70 66 72 64 62 68 63 64 60
Wind_Direction_500mb
226 231 233 208 199 200 199 187 181 179 192 182 189 192 185 175 169 191 177 168 171 160 163 162 163 160 160 159 158 150 153 146 147 149 147 146 146 139 131 127 126 122 116
234 227 229 208 201 204 203 183 182 188 190 189 191 189 185 178 170 176 183 171 170 165 170 170 166 165 168 170 162 161 155 157 157 156 154 153 150 142 135 135 132 128 121
247 239 232 225 214 204 206 184 190 198 189 193 192 186 184 171 175 169 170 176 174 170 178 176 176 170 174 173 169 167 165 166 166 165 164 161 156 151 149 146 142 137 134
238 250 256 225 223 208 206 186 194 193 191 186 188 189 187 176 174 178 170 171 176 179 183 184 183 177 181 178 174 174 174 174 177 175 170 171 164 159 158 156 153 152 149
242 265 257 239 218 215 205 202 196 198 197 193 189 190 187 189 175 179 184 176 178 186 185 196 191 186 189 188 184 182 181 183 185 184 181 176 173 172 171 169 166 168 167
263 262 261 244 226 219 223 207 201 205 206 201 189 189 186 195 178 187 188 182 186 188 186 216 194 194 195 195 191 187 191 191 195 190 189 186 185 183 180 180 180 184 186
264 265 264 243 229 220 222 215 222 212 209 202 190 189 191 186 187 193 190 186 194 190 190 219 195 197 203 199 198 195 196 198 203 199 198 196 194 193 189 190 193 197 201
269 255 259 249 242 236 213 219 219 213 215 213 196 195 187 189 194 189 198 193 204 194 196 203 195 196 215 208 204 202 201 203 209 209 206 206 204 201 202 200 204 209 212
242 258 250 247 239 232 215 218 215 216 211 212 220 200 189 205 196 196 194 201 213 198 203 204 205 203 209 222 219 211 209 208 213 215 213 212 214 210 211 212 212 217 221
238 244 247 251 248 236 229 227 222 216 214 218 219 217 214 209 184 182 207 205 214 204 208 210 213 210 207 207 232 228 214 214 214 218 218 217 219 219 216 220 219 222 228
246 238 251 250 257 260 242 236 228 221 216 220 215 221 217 212 207 192 207 209 210 217 210 208 214 215 214 212 214 230 225 217 218 220 222 221 224 225 222 224 226 225 231
244 245 241 257 256 245 263 235 247 239 219 229 229 228 214 208 209 211 221 206 210 216 220 222 208 219 219 220 215 224 232 219 220 220 222 224 225 227 226 227 229 231 233
247 231 234 242 265 266 266 254 244 235 240 228 226 218 216 218 211 211 214 210 204 206 214 228 232 213 215 226 225 222 234 224 222 223 221 223 226 227 228 227 229 232 235
294 250 229 246 246 253 249 248 241 243 244 241 238 235 218 217 211 212 203 205 199 202 207 222 228 234 221 218 227 232 233 224 225 223 223 223 225 227 229 229 230 233 236
292 272 252 231 235 247 243 259 256 228 238 241 245 238 226 224 222 213 214 219 216 190 212 215 210 242 220 221 224 231 232 226 227 226 225 223 225 227 229 232 233 235 241
300 283 265 252 240 240 247 253 252 232 240 246 244 226 224 215 213 221 216 219 216 229 231 228 215 226 224 213 226 233 234 232 228 228 227 226 227 228 230 233 236 236 242
300 290 272 253 250 232 241 242 237 251 241 250 234 234 226 239 234 216 223 220 224 226 232 241 231 238 213 210 213 240 237 230 232 229 228 227 228 228 230 232 236 239 241
309 294 281 258 253 228 221 241 244 254 250 240 237 228 233 238 237 227 221 222 229 231 241 247 242 241 240 220 209 232 236 229 233 232 231 229 230 230 232 233 236 240 242
321 301 290 279 258 238 233 243 246 241 234 234 232 235 244 248 236 235 231 234 236 242 240 250 250 245 247 249 232 227 238 228 233 232 232 232 232 232 234 235 237 241 245
337 319 302 290 279 262 241 234 226 240 242 242 230 241 243 245 234 238 238 235 238 244 250 243 246 246 248 250 247 228 236 234 232 228 234 232 232 232 233 236 240 243 247
355 342 318 297 283 259 250 235 236 241 245 234 243 245 241 245 273 256 253 246 239 241 239 243 240 247 250 252 258 257 236 239 234 230 236 234 232 233 236 237 240 242 249
7 1 345 323 271 256 248 238 236 215 219 226 235 241 244 253 255 263 266 252 250 231 234 235 247 249 256 260 258 257 237 232 228 229 228 239 242 240 241 242 246 249 252
12 10 9 352 316 298 275 253 247 246 242 243 245 246 252 260 260 263 267 238 253 245 241 244 245 245 244 247 248 232 230 234 242 239 233 236 237 244 247 247 246 248 250
17 14 18 21 11 356 334 317 283 256 253 254 257 249 252 248 265 280 272 271 262 250 250 246 242 242 241 248 246 240 229 235 241 245 236 231 235 243 251 250 247 243 245
16 21 21 29 30 22 10 343 337 297 257 250 248 246 244 248 251 269 272 292 264 261 255 257 254 250 242 243 245 237 231 236 235 240 237 232 233 234 234 245 248 247 250
22 22 25 23 23 25 22 19 355 331 305 273 253 245 235 240 248 248 251 242 255 256 269 269 263 252 241 250 244 240 229 221 227 238 235 234 234 227 231 245 239 252 254
Wind_Speed_850mb
42 44 44 54 68 66 57 49 48 44 48 39 28 31 29 24 23 14 18 29 30 32 31 31 32 33 33 35 30 34 30 30 30 29 29 29 27 26 26 26 25 24 22
37 43 42 62 75 67 59 51 51 49 49 47 42 38 32 27 23 18 21 28 32 35 31 32 31 32 30 31 30 30 30 30 29 28 27 26 25 25 25 24 23 21 20
38 37 39 53 71 58 63 59 60 62 55 47 41 36 33 28 24 23 23 25 31 33 33 28 30 33 32 30 30 30 28 28 27 26 25 25 23 23 23 22 21 19 17
43 33 36 46 56 77 63 63 64 65 57 46 40 37 32 28 26 24 23 24 28 29 35 34 33 32 32 32 32 31 30 28 25 26 26 25 23 22 21 20 19 17 15
37 35 35 34 55 66 67 61 63 65 62 49 40 35 30 28 28 23 26 27 28 28 28 37 33 36 34 31 31 30 29 28 27 26 26 25 23 23 21 19 18 16 14
32 34 35 39 51 67 75 85 58 59 60 57 45 38 34 31 29 28 27 27 27 30 29 30 35 34 33 32 32 32 29 28 28 26 25 25 24 24 22 20 18 17 15
32 36 40 34 49 70 76 49 71 70 63 58 49 39 43 36 34 29 27 29 31 32 31 32 31 30 34 34 34 34 32 30 29 27 26 26 25 23 23 21 20 19 18
31 37 35 45 49 59 65 72 72 82 76 67 68 59 47 41 47 39 30 30 35 33 35 33 33 33 33 37 37 36 35 33 32 29 28 27 26 24 24 23 22 21 19
38 42 36 40 49 66 69 78 80 85 84 78 79 57 37 28 45 47 43 38 39 34 34 36 37 38 36 30 34 37 37 37 35 33 31 29 28 27 25 24 24 22 21
40 40 48 41 44 59 89 81 83 80 82 88 90 85 64 45 41 27 50 46 44 42 40 38 41 41 39 37 38 40 42 41 39 37 34 33 32 29 27 26 25 24 23
35 37 44 43 46 54 71 80 61 74 86 89 103 99 88 65 54 39 33 53 51 50 48 45 40 40 43 42 43 48 45 45 43 41 38 36 35 32 29 28 27 25 25
33 35 42 44 51 49 58 67 51 75 81 88 107 101 99 82 79 72 41 52 60 50 52 54 52 45 42 45 46 47 47 47 48 46 43 40 38 35 32 30 29 27 26
22 34 35 40 43 50 38 37 68 51 67 84 82 100 101 107 78 79 57 46 44 35 44 50 50 57 46 47 47 57 52 47 52 51 48 45 42 38 35 32 30 28 27
33 30 25 38 44 45 44 59 49 57 66 81 84 85 89 100 93 84 66 36 35 41 37 40 57 60 57 51 50 52 51 48 53 54 51 49 47 42 39 36 32 29 28
36 37 34 30 50 54 55 48 48 67 70 59 63 76 88 102 99 89 85 65 47 32 43 38 29 32 43 47 53 58 53 49 54 54 53 52 51 47 44 40 37 34 32
35 32 36 34 41 48 50 46 49 55 59 59 56 67 75 78 91 106 94 76 61 48 47 22 40 32 33 45 48 59 54 54 51 54 55 54 53 50 47 45 42 38 36
36 33 35 41 34 37 60 42 60 51 69 62 71 71 73 64 80 90 82 90 71 63 47 49 31 27 30 42 42 51 51 52 56 56 56 55 54 52 49 46 44 40 39
32 31 32 40 33 28 36 57 45 51 60 87 80 79 77 74 71 74 74 76 72 75 61 59 55 37 30 31 42 49 49 50 54 53 57 57 57 55 53 50 47 47 43
33 27 28 31 33 32 33 51 61 48 35 43 69 68 69 88 85 81 87 93 88 78 72 74 70 62 52 42 36 43 43 47 50 53 54 58 57 57 55 54 51 52 49
35 27 23 26 29 31 36 42 43 53 49 47 50 72 70 79 85 85 95 98 84 81 76 80 85 74 68 57 53 46 51 50 52 45 57 60 60 59 59 57 57 54 53
38 28 21 19 20 36 40 38 50 62 52 52 44 42 63 55 63 76 90 86 99 100 87 84 83 79 81 81 83 76 58 56 57 53 56 56 62 59 63 63 63 59 55
40 28 21 12 16 26 35 53 50 43 55 51 51 61 63 67 73 69 70 106 107 106 102 105 89 94 98 100 86 101 82 63 54 64 60 61 61 63 68 65 60 56 55
42 35 26 19 17 23 30 42 52 59 58 65 68 61 51 49 42 50 49 91 101 114 107 110 114 108 124 112 90 94 90 77 72 65 58 64 61 68 70 65 62 56 55
39 41 37 33 27 29 32 32 35 46 50 58 53 62 60 48 37 32 38 64 89 103 97 93 97 100 105 100 90 96 111 88 73 64 62 66 59 61 63 62 58 54 55
42 39 41 42 41 42 44 36 29 26 38 48 56 49 55 61 47 42 33 42 67 71 76 94 86 83 96 91 81 92 98 98 86 79 73 68 65 58 64 59 62 59 57
40 37 36 38 45 53 51 43 28 26 25 30 38 57 57 60 67 53 50 41 46 50 61 61 78 93 97 92 91 84 90 101 87 74 70 66 72 64 62 68 63 64 60
Wind_Direction_850mb
226 231 233 208 199 200 199 187 181 179 192 182 189 192 185 175 169 191 177 168 171 160 163 162 163 160 160 159 158 150 153 146 147 149 147 146 146 139 131 127 126 122 116
234 227 229 208 201 204 203 183 182 188 190 189 191 189 185 178 170 176 183 171 170 165 170 170 166 165 168 170 162 161 155 157 157 156 154 153 150 142 135 135 132 128 121
247 239 232 225 214 204 206 184 190 198 189 193 192 186 184 171 175 169 170 176 174 170 178 176 176 170 174 173 169 167 165 166 166 165 164 161 156 151 149 146 142 137 134
238 250 256 225 223 208 206 186 194 193 191 186 188 189 187 176 174 178 170 171 176 179 183 184 183 177 181 178 174 174 174 174 177 175 170 171 164 159 158 156 153 152 149
242 265 257 239 218 215 205 202 196 198 197 193 189 190 187 189 175 179 184 176 178 186 185 196 191 186 189 188 184 182 181 183 185 184 181 176 173 172 171 169 166 168 167
263 262 261 244 226 219 223 207 201 205 206 201 189 189 186 195 178 187 188 182 186 188 186 216 194 194 195 195 191 187 191 191 195 190 189 186 185 183 180 180 180 184 186
264 265 264 243 229 220 222 215 222 212 209 202 190 189 191 186 187 193 190 186 194 190 190 219 195 197 203 199 198 195 196 198 203 199 198 196 194 193 189 190 193 197 201
269 255 259 249 242 236 213 219 219 213 215 213 196 195 187 189 194 189 198 193 204 194 196 203 195 196 215 208 204 202 201 203 209 209 206 206 204 201 202 200 204 209 212
242 258 250 247 239 232 215 218 215 216 211 212 220 200 189 205 196 196 194 201 213 198 203 204 205 203 209 222 219 211 209 208 213 215 213 212 214 210 211 212 212 217 221
238 244 247 251 248 236 229 227 222 216 214 218 219 217 214 209 184 182 207 205 214 204 208 210 213 210 207 207 232 228 214 214 214 218 218 217 219 219 216 220 219 222 228
246 238 251 250 257 260 242 236 228 221 216 220 215 221 217 212 207 192 207 209 210 217 210 208 214 215 214 212 214 230 225 217 218 220 222 221 224 225 222 224 226 225 231
244 245 241 257 256 245 263 235 247 239 219 229 229 228 214 208 209 211 221 206 210 216 220 222 208 219 219 220 215 224 232 219 220 220 222 224 225 227 226 227 229 231 233
247 231 234 242 265 266 266 254 244 235 240 228 226 218 216 218 211 211 214 210 204 206 214 228 232 213 215 226 225 222 234 224 222 223 221 223 226 227 228 227 229 232 235
294 250 229 246 246 253 249 248 241 243 244 241 238 235 218 217 211 212 203 205 199 202 207 222 228 234 221 218 227 232 233 224 225 223 223 223 225 227 229 229 230 233 236
292 272 252 231 235 247 243 259 256 228 238 241 245 238 226 224 222 213 214 219 216 190 212 215 210 242 220 221 224 231 232 226 227 226 225 223 225 227 229 232 233 235 241
300 283 265 252 240 240 247 253 252 232 240 246 244 226 224 215 213 221 216 219 216 229 231 228 215 226 224 213 226 233 234 232 228 228 227 226 227 228 230 233 236 236 242
300 290 272 253 250 232 241 242 237 251 241 250 234 234 226 239 234 216 223 220 224 226 232 241 231 238 213 210 213 240 237 230 232 229 228 227 228 228 230 232 236 239 241
309 294 281 258 253 228 221 241 244 254 250 240 237 228 233 238 237 227 221 222 229 231 241 247 242 241 240 220 209 232 236 229 233 232 231 229 230 230 232 233 236 240 242
321 301 290 279 258 238 233 243 246 241 234 234 232 235 244 248 236 235 231 234 236 242 240 250 250 245 247 249 232 227 238 228 233 232 232 232 232 232 234 235 237 241 245
337 319 302 290 279 262 241 234 226 240 242 242 230 241 243 245 234 238 238 235 238 244 250 243 246 246 248 250 247 228 236 234 232 228 234 232 232 232 233 236 240 243 247
355 342 318 297 283 259 250 235 236 241 245 234 243 245 241 245 273 256 253 246 239 241 239 243 240 247 250 252 258 257 236 239 234 230 236 234 232 233 236 237 240 242 249
7 1 345 323 271 256 248 238 236 215 219 226 235 241 244 253 255 263 266 252 250 231 234 235 247 249 256 260 258 257 237 232 228 229 228 239 242 240 241 242 246 249 252
12 10 9 352 316 298 275 253 247 246 242 243 245 246 252 260 260 263 267 238 253 245 241 244 245 245 244 247 248 232 230 234 242 239 233 236 237 244 247 247 246 248 250
17 14 18 21 11 356 334 317 283 256 253 254 257 249 252 248 265 280 272 271 262 250 250 246 242 242 241 248 246 240 229 235 241 245 236 231 235 243 251 250 247 243 245
16 21 21 29 30 22 10 343 337 297 257 250 248 246 244 248 251 269 272 292 264 261 255 257 254 250 242 243 245 237 231 236 235 240 237 232 233 234 234 245 248 247 250
22 22 25 23 23 25 22 19 355 331 305 273 253 245 235 240 248 248 251 242 255 256 269 269 263 252 241 250 244 240 229 221 227 238 235 234 234 227 231 245 239 252 254